User: anonymous   Login
Location: Unspecified
(0.0000°N, 0.0000°E)
Time: 02:45:18
(UTC+00:00)
Language:

Kosmos-1704 - Orbit

View from above orbital plane
View from above orbital plane
View from above satellite
View from above satellite

Ground track
Ground track

The orbit data is extracted from the following two-line orbital elements,

1 16291U 85110A   18020.74754924  .00000018  00000-0  31872-5 0  9992
2 16291  82.9334 239.6526 0030932 336.9098  68.5302 13.74597569612490
Epoch (UTC): 20 January 2018 17:56:28
Eccentricity: 0.0030932
inclination: 82.9334°
perigee height: 960 km
apogee height: 1006 km
right ascension of ascending node: 239.6526°
argument of perigee: 336.9098°
revolutions per day: 13.74597569
mean anomaly at epoch: 68.5302°
orbit number at epoch: 61249

The dashed part of the orbit path shows where the satellite is in the earth's shadow,  

DLR